SV2BZQ-1 Weather Reports


time (UTC)temp
F
wind
direction
speed
knots
gust
knots
rain 1hr
in
rain 24hr
in
rain mn
in
humidity
%
barometer
mb
20260506153701 70 141 0.9 2.6 0.00 0.00 0.00 60 1012.7
20260506153410 70 141 1.7 12.2 0.00 0.00 0.00 60 1012.7
20260506153221 70 138 1.7 12.2 0.00 0.00 0.00 60 1012.7
20260506153046 70 167 0.9 12.2 0.00 0.00 0.00 60 1012.7
20260506152800 70 137 1.7 12.2 0.00 0.00 0.00 60 1012.7
20260506152554 70 145 1.7 12.2 0.00 0.00 0.00 60 1012.7
20260506152359 70 162 0.9 6.1 0.00 0.00 0.00 60 1012.7
20260506152158 70 124 0.9 6.1 0.00 0.00 0.00 60 1012.7
20260506151950 70 128 0.9 6.1 0.00 0.00 0.00 60 1012.7
20260506151748 70 127 0.9 7.0 0.00 0.00 0.00 60 1012.7
20260506151550 71 141 0.9 7.0 0.00 0.00 0.00 60 1012.7
20260506151352 71 222 1.7 7.0 0.00 0.00 0.00 61 1012.7
20260506151206 71 168 1.7 7.0 0.00 0.00 0.00 62 1012.7
20260506151025 71 158 1.7 7.0 0.00 0.00 0.00 62 1012.7
20260506150742 71 123 1.7 7.0 0.00 0.00 0.00 62 1012.7
20260506150535 70 161 1.7 7.0 0.00 0.00 0.00 63 1012.7
20260506150339 70 223 1.7 6.1 0.00 0.00 0.00 63 1012.7
20260506150135 70 127 2.6 7.0 0.00 0.00 0.00 63 1012.7
20260506145936 70 147 2.6 7.0 0.00 0.00 0.00 63 1012.7
20260506145747 70 171 2.6 7.0 0.00 0.00 0.00 63 1012.6
20260506145546 70 178 2.6 7.0 0.00 0.00 0.00 63 1012.6
20260506145400 70 165 2.6 7.0 0.00 0.00 0.00 63 1012.6
20260506145216 70 114 2.6 7.0 0.00 0.00 0.00 63 1012.6
20260506145025 71 110 2.6 8.7 0.00 0.00 0.00 62 1012.6
20260506144739 71 154 2.6 8.7 0.00 0.00 0.00 62 1012.6
20260506144537 71 127 2.6 8.7 0.00 0.00 0.00 62 1012.6
20260506144345 71 138 1.7 8.7 0.00 0.00 0.00 62 1012.7
20260506144131 71 127 1.7 8.7 0.00 0.00 0.00 63 1012.7
20260506143932 71 137 1.7 6.1 0.00 0.00 0.00 62 1012.7
20260506143731 71 117 1.7 6.1 0.00 0.00 0.00 62 1012.7
20260506143535 71 136 1.7 5.2 0.00 0.00 0.00 62 1012.7
20260506143334 71 179 2.6 6.1 0.00 0.00 0.00 62 1012.7
20260506143146 71 176 2.6 6.1 0.00 0.00 0.00 62 1012.7
20260506143014 71 158 2.6 7.0 0.00 0.00 0.00 61 1012.7
20260506142724 71 121 2.6 7.0 0.00 0.00 0.00 61 1012.8
20260506142525 71 169 2.6 7.0 0.00 0.00 0.00 61 1012.8
20260506142327 71 172 2.6 7.0 0.00 0.00 0.00 61 1012.8
20260506142138 71 143 2.6 7.0 0.00 0.00 0.00 61 1012.8
20260506141938 71 133 2.6 6.1 0.00 0.00 0.00 62 1012.8
20260506141735 70 154 2.6 7.0 0.00 0.00 0.00 63 1012.8
20260506141536 70 102 2.6 7.0 0.00 0.00 0.00 62 1012.8
20260506141334 70 110 2.6 7.0 0.00 0.00 0.00 62 1012.8
20260506141145 70 140 2.6 7.0 0.00 0.00 0.00 62 1012.8
20260506141014 70 141 2.6 7.0 0.00 0.00 0.00 64 1012.8
20260506140723 70 131 2.6 7.0 0.00 0.00 0.00 64 1012.8
20260506140523 70 127 2.6 7.8 0.00 0.00 0.00 65 1012.8
20260506140324 70 137 3.5 7.8 0.00 0.00 0.00 64 1012.8
20260506140117 70 121 3.5 8.7 0.00 0.00 0.00 64 1012.8
20260506135917 70 123 3.5 8.7 0.00 0.00 0.00 64 1012.8
20260506135714 70 127 3.5 8.7 0.00 0.00 0.00 64 1012.9
20260506135520 70 161 3.5 8.7 0.00 0.00 0.00 63 1012.9
20260506135332 70 189 3.5 8.7 0.00 0.00 0.00 62 1012.9
20260506135145 70 148 3.5 7.0 0.00 0.00 0.00 61 1012.9
20260506134957 71 131 3.5 6.1 0.00 0.00 0.00 61 1012.9
20260506134700 71 148 3.5 6.1 0.00 0.00 0.00 60 1012.9
20260506134458 71 126 3.5 6.1 0.00 0.00 0.00 60 1012.9
20260506134058 71 133 3.5 6.1 0.00 0.00 0.00 60 1013.0
20260506133859 71 131 2.6 6.1 0.00 0.00 0.00 60 1013.0
20260506133654 71 133 2.6 6.1 0.00 0.00 0.00 61 1013.0
20260506133456 70 152 1.7 6.1 0.00 0.00 0.00 63 1013.0
20260506133249 71 140 1.7 6.1 0.00 0.00 0.00 64 1013.0
20260506133050 70 155 1.7 6.1 0.00 0.00 0.00 65 1013.0
20260506132850 70 140 2.6 6.1 0.00 0.00 0.00 65 1013.0
20260506132655 70 164 2.6 6.1 0.00 0.00 0.00 66 1013.0
20260506132445 70 174 2.6 6.1 0.00 0.00 0.00 66 1013.0
20260506132251 70 126 2.6 6.1 0.00 0.00 0.00 66 1013.0
20260506132052 70 128 3.5 6.1 0.00 0.00 0.00 67 1013.0
20260506131846 70 154 2.6 6.1 0.00 0.00 0.00 67 1013.0
20260506131637 70 138 3.5 6.1 0.00 0.00 0.00 67 1013.0
20260506131434 70 148 2.6 7.0 0.00 0.00 0.00 67 1013.0
20260506131227 70 124 3.5 7.0 0.00 0.00 0.00 67 1013.1
20260506131029 70 147 3.5 7.0 0.00 0.00 0.00 67 1013.1
20260506130834 70 158 3.5 7.0 0.00 0.00 0.00 67 1013.1
20260506130627 70 152 3.5 7.0 0.00 0.00 0.00 67 1013.1
20260506130426 70 133 3.5 7.0 0.00 0.00 0.00 67 1013.1
20260506130223 70 131 3.5 8.7 0.00 0.00 0.00 67 1013.1
20260506130029 70 110 3.5 8.7 0.00 0.00 0.00 67 1013.1
20260506125835 69 143 4.3 8.7 0.00 0.00 0.00 67 1013.3
20260506125640 70 162 4.3 8.7 0.00 0.00 0.00 68 1013.3
20260506125503 70 155 4.3 8.7 0.00 0.00 0.00 68 1013.3
20260506125213 70 117 4.3 9.6 0.00 0.00 0.00 68 1013.3
20260506125012 70 130 4.3 9.6 0.00 0.00 0.00 68 1013.3
20260506124816 70 136 4.3 9.6 0.00 0.00 0.00 68 1013.3
20260506124605 70 160 4.3 9.6 0.00 0.00 0.00 69 1013.3
20260506124404 70 151 4.3 9.6 0.00 0.00 0.00 69 1013.4
20260506124200 70 133 4.3 8.7 0.00 0.00 0.00 68 1013.4
20260506124000 70 106 4.3 8.7 0.00 0.00 0.00 68 1013.4
20260506123806 70 127 4.3 8.7 0.00 0.00 0.00 67 1013.4
20260506123558 70 162 3.5 8.7 0.00 0.00 0.00 67 1013.4
20260506123356 70 199 3.5 8.7 0.00 0.00 0.00 67 1013.4
20260506123200 70 147 3.5 8.7 0.00 0.00 0.00 67 1013.4
20260506122952 71 124 3.5 8.7 0.00 0.00 0.00 67 1013.4
20260506122759 71 136 3.5 6.1 0.00 0.00 0.00 66 1013.5
20260506122543 71 119 3.5 6.1 0.00 0.00 0.00 66 1013.5
20260506122341 71 140 3.5 6.1 0.00 0.00 0.00 65 1013.5
20260506122143 71 151 3.5 6.1 0.00 0.00 0.00 65 1013.5
20260506121950 71 144 3.5 6.1 0.00 0.00 0.00 65 1013.5
20260506121607 71 165 3.5 6.1 0.00 0.00 0.00 64 1013.5
20260506121432 71 164 3.5 6.1 0.00 0.00 0.00 64 1013.8
20260506121131 71 137 3.5 6.1 0.00 0.00 0.00 64 1013.8
20260506120934 71 124 3.5 6.1 0.00 0.00 0.00 63 1013.8
20260506120741 71 174 3.5 6.1 0.00 0.00 0.00 63 1013.8
20260506120541 71 136 3.5 6.1 0.00 0.00 0.00 61 1013.8
20260506120348 71 179 3.5 7.0 0.00 0.00 0.00 61 1013.8
20260506120132 71 160 3.5 7.0 0.00 0.00 0.00 61 1013.8
20260506115935 71 148 3.5 7.0 0.00 0.00 0.00 61 1013.8
20260506115729 71 171 3.5 7.0 0.00 0.00 0.00 61 1013.9
20260506115530 71 157 3.5 7.0 0.00 0.00 0.00 61 1013.9
20260506115330 71 232 3.5 7.0 0.00 0.00 0.00 60 1013.9
20260506115126 71 144 3.5 7.0 0.00 0.00 0.00 60 1013.9
20260506114937 71 121 2.6 7.0 0.00 0.00 0.00 59 1013.9
20260506114725 71 103 2.6 6.1 0.00 0.00 0.00 61 1013.9
20260506114525 71 131 2.6 6.1 0.00 0.00 0.00 62 1013.9
20260506114323 71 138 2.6 6.1 0.00 0.00 0.00 63 1014.0
20260506114120 71 147 2.6 6.1 0.00 0.00 0.00 63 1014.0
20260506113919 71 140 2.6 6.1 0.00 0.00 0.00 64 1014.0
20260506113720 70 114 3.5 6.1 0.00 0.00 0.00 64 1014.0
20260506113522 70 144 2.6 6.1 0.00 0.00 0.00 64 1014.0
20260506113319 70 128 3.5 6.1 0.00 0.00 0.00 65 1014.0
20260506113112 69 137 3.5 6.1 0.00 0.00 0.00 65 1014.0
20260506112912 69 123 3.5 6.1 0.00 0.00 0.00 66 1014.0
20260506112710 69 110 3.5 6.1 0.00 0.00 0.00 65 1014.0
20260506112505 69 121 4.3 6.1 0.00 0.00 0.00 65 1014.0
20260506112318 69 141 4.3 6.1 0.00 0.00 0.00 65 1014.0
20260506112118 69 114 4.3 6.1 0.00 0.00 0.00 64 1014.0
20260506111931 69 133 4.3 6.1 0.00 0.00 0.00 65 1014.0
20260506111732 69 144 3.5 6.1 0.00 0.00 0.00 66 1014.0
20260506111605 69 126 3.5 6.1 0.00 0.00 0.00 65 1014.0
20260506111437 69 133 4.3 6.1 0.00 0.00 0.00 65 1014.1
20260506111200 69 140 3.5 6.1 0.00 0.00 0.00 65 1014.1
20260506110908 69 138 3.5 6.1 0.00 0.00 0.00 66 1014.1
20260506110713 69 119 4.3 6.1 0.00 0.00 0.00 66 1014.1
20260506110538 69 116 4.3 6.1 0.00 0.00 0.00 66 1014.1
20260506110406 69 128 3.5 6.1 0.00 0.00 0.00 66 1014.1
20260506110104 69 116 3.5 6.1 0.00 0.00 0.00 65 1014.1
20260506105904 69 131 3.5 6.1 0.00 0.00 0.00 65 1014.1
20260506105659 69 114 3.5 6.1 0.00 0.00 0.00 65 1014.1
20260506105503 70 130 3.5 7.0 0.00 0.00 0.00 66 1014.1
20260506105259 69 119 4.3 7.0 0.00 0.00 0.00 65 1014.1
20260506105052 69 144 4.3 7.0 0.00 0.00 0.00 65 1014.1
20260506104858 69 124 4.3 7.0 0.00 0.00 0.00 65 1014.1
20260506104653 69 123 4.3 7.0 0.00 0.00 0.00 63 1014.1
20260506104450 69 127 4.3 7.0 0.00 0.00 0.00 63 1014.1
20260506104254 69 165 4.3 7.0 0.00 0.00 0.00 62 1014.3
20260506104056 69 140 4.3 7.0 0.00 0.00 0.00 62 1014.3
20260506103903 69 124 3.5 7.0 0.00 0.00 0.00 62 1014.3
20260506103657 69 119 3.5 6.1 0.00 0.00 0.00 61 1014.3
20260506103501 69 137 3.5 6.1 0.00 0.00 0.00 61 1014.3
20260506103304 69 133 3.5 6.1 0.00 0.00 0.00 61 1014.3
20260506103109 69 114 3.5 5.2 0.00 0.00 0.00 61 1014.3
20260506102936 69 119 3.5 5.2 0.00 0.00 0.00 60 1014.4
20260506102644 69 119 3.5 5.2 0.00 0.00 0.00 60 1014.4
20260506102442 69 137 3.5 5.2 0.00 0.00 0.00 59 1014.4
20260506102254 69 121 2.6 5.2 0.00 0.00 0.00 60 1014.4
20260506102108 70 148 2.6 5.2 0.00 0.00 0.00 60 1014.4
20260506101937 70 136 2.6 5.2 0.00 0.00 0.00 61 1014.4
20260506101640 70 141 1.7 5.2 0.00 0.00 0.00 61 1014.4
20260506101428 70 136 1.7 5.2 0.00 0.00 0.00 65 1014.4
20260506101236 71 119 0.9 5.2 0.00 0.00 0.00 65 1014.4
20260506101030 71 148 0.9 3.5 0.00 0.00 0.00 65 1014.4
20260506100833 71 202 0.9 3.5 0.00 0.00 0.00 66 1014.4
20260506100650 71 130 0.9 3.5 0.00 0.00 0.00 67 1014.4
20260506100514 71 127 0.9 3.5 0.00 0.00 0.00 68 1014.4
20260506100338 71 80 0.9 3.5 0.00 0.00 0.00 69 1014.4
20260506100012 71 95 0.9 2.6 0.00 0.00 0.00 69 1014.4
20260506095812 70 109 0.9 4.3 0.00 0.00 0.00 69 1014.6
20260506095609 70 97 1.7 5.2 0.00 0.00 0.00 69 1014.6
20260506095409 70 92 2.6 5.2 0.00 0.00 0.00 69 1014.6
20260506095009 69 79 1.7 5.2 0.00 0.00 0.00 68 1014.6
20260506094835 69 97 1.7 5.2 0.00 0.00 0.00 68 1014.6
20260506094611 70 99 0.9 5.2 0.00 0.00 0.00 68 1014.6
20260506094411 69 99 0.9 2.6 0.00 0.00 0.00 69 1014.7
20260506094147 69 127 0.9 4.3 0.00 0.00 0.00 69 1014.7
20260506093945 69 141 1.7 5.2 0.00 0.00 0.00 70 1014.7
20260506093757 69 130 2.6 5.2 0.00 0.00 0.00 70 1014.7
20260506093550 68 104 2.6 5.2 0.00 0.00 0.00 69 1014.7
20260506093340 68 113 3.5 5.2 0.00 0.00 0.00 69 1014.7
20260506093152 68 90 2.6 5.2 0.00 0.00 0.00 69 1014.7
20260506092945 68 107 2.6 5.2 0.00 0.00 0.00 68 1014.7
20260506092742 68 104 2.6 5.2 0.00 0.00 0.00 68 1014.7
20260506092541 69 107 1.7 5.2 0.00 0.00 0.00 68 1014.7
20260506092336 69 109 0.9 4.3 0.00 0.00 0.00 68 1014.7
20260506092138 69 78 0.9 2.6 0.00 0.00 0.00 68 1014.7
20260506091928 69 95 0.9 2.6 0.00 0.00 0.00 68 1014.7
20260506091732 69 99 0.0 1.7 0.00 0.00 0.00 69 1014.7
20260506091520 69 93 0.0 1.7 0.00 0.00 0.00 69 1014.7
20260506091315 69 119 0.9 1.7 0.00 0.00 0.00 69 1014.6
20260506091113 69 147 0.9 2.6 0.00 0.00 0.00 69 1014.6
20260506090905 69 110 0.9 2.6 0.00 0.00 0.00 69 1014.6
20260506090700 69 119 0.9 2.6 0.00 0.00 0.00 69 1014.6
20260506090459 68 145 1.7 2.6 0.00 0.00 0.00 69 1014.6
20260506090255 68 112 1.7 3.5 0.00 0.00 0.00 68 1014.6
20260506090049 68 117 1.7 3.5 0.00 0.00 0.00 68 1014.6
20260506085844 68 119 0.9 3.5 0.00 0.00 0.00 68 1014.7
20260506085640 68 109 0.9 3.5 0.00 0.00 0.00 69 1014.7
20260506085441 68 113 0.9 3.5 0.00 0.00 0.00 69 1014.7
20260506085230 68 107 0.9 2.6 0.00 0.00 0.00 69 1014.7
20260506085023 68 133 0.9 3.5 0.00 0.00 0.00 70 1014.7
20260506084829 68 112 0.9 3.5 0.00 0.00 0.00 70 1014.7
20260506084615 67 137 1.7 4.3 0.00 0.00 0.00 70 1014.6
20260506084434 67 103 1.7 4.3 0.00 0.00 0.00 70 1014.5
20260506084316 67 83 1.7 4.3 0.00 0.00 0.00 70 1014.5
20260506084134 67 110 1.7 4.3 0.00 0.00 0.00 70 1014.5
20260506084015 67 103 1.7 4.3 0.00 0.00 0.00 69 1014.5
20260506083732 67 92 0.9 4.3 0.00 0.00 0.00 69 1014.5
20260506083608 67 99 0.9 4.3 0.00 0.00 0.00 69 1014.5
20260506083409 68 102 0.9 2.6 0.00 0.00 0.00 69 1014.6
20260506083006 67 113 0.9 2.6 0.00 0.00 0.00 69 1014.6
20260506082800 67 112 0.9 2.6 0.00 0.00 0.00 69 1014.5
20260506082559 67 103 0.9 2.6 0.00 0.00 0.00 69 1014.5
20260506082355 67 124 0.9 2.6 0.00 0.00 0.00 69 1014.5
20260506082027 67 107 0.9 1.7 0.00 0.00 0.00 69 1014.5
20260506081905 67 106 0.9 1.7 0.00 0.00 0.00 69 1014.5
20260506081617 67 104 0.9 2.6 0.00 0.00 0.00 69 1014.5
20260506081447 67 104 0.0 2.6 0.00 0.00 0.00 69 1014.7
20260506081206 67 103 0.0 2.6 0.00 0.00 0.00 70 1014.7
20260506080930 67 103 0.9 2.6 0.00 0.00 0.00 70 1014.7
20260506080732 67 109 0.9 2.6 0.00 0.00 0.00 69 1014.7
20260506080528 67 88 0.9 4.3 0.00 0.00 0.00 70 1014.7
20260506080321 67 89 1.7 4.3 0.00 0.00 0.00 70 1014.7
20260506080132 67 86 1.7 4.3 0.00 0.00 0.00 70 1014.7
20260506073331 66 40 0.9 4.3 0.00 0.00 0.00 70 1014.5
20260506073150 66 54 0.9 3.5 0.00 0.00 0.00 70 1014.5
20260506073021 66 37 0.9 5.2 0.00 0.00 0.00 71 1014.5
20260506072900 66 52 1.7 6.1 0.00 0.00 0.00 71 1014.5
20260506072735 65 340 1.7 6.1 0.00 0.00 0.00 71 1014.5
20260506072551 65 28 2.6 6.1 0.00 0.00 0.00 72 1014.5
20260506072405 65 17 3.5 6.1 0.00 0.00 0.00 72 1014.5
20260506072058 65 3 4.3 6.1 0.00 0.00 0.00 71 1014.5
20260506071805 64 20 4.3 6.1 0.00 0.00 0.00 71 1014.7
20260506071457 64 17 4.3 6.1 0.00 0.00 0.00 71 1014.7
20260506071116 64 45 4.3 6.1 0.00 0.00 0.00 71 1014.7
20260506070847 64 20 4.3 6.1 0.00 0.00 0.00 71 1014.7
20260506070642 64 13 4.3 6.1 0.00 0.00 0.00 72 1014.7
20260506070433 64 18 4.3 6.1 0.00 0.00 0.00 72 1014.7
20260506070308 64 17 4.3 7.0 0.00 0.00 0.00 72 1014.7
20260506062339 63 356 3.5 7.0 0.00 0.00 0.00 72 1014.8
20260506062149 64 49 3.5 7.0 0.00 0.00 0.00 72 1014.8
20260506061937 64 10 3.5 6.1 0.00 0.00 0.00 73 1014.8
20260506061738 64 20 2.6 6.1 0.00 0.00 0.00 73 1014.8
20260506061539 64 25 3.5 7.0 0.00 0.00 0.00 73 1014.8
20260506061343 63 18 3.5 7.0 0.00 0.00 0.00 74 1014.8
20260506061141 63 337 3.5 7.0 0.00 0.00 0.00 74 1014.8
20260506060944 63 10 3.5 7.0 0.00 0.00 0.00 74 1014.8
20260506060742 63 25 3.5 7.0 0.00 0.00 0.00 73 1014.8
20260506060545 63 41 3.5 7.0 0.00 0.00 0.00 74 1014.8
20260506060345 63 30 3.5 7.0 0.00 0.00 0.00 74 1014.8
20260506060205 63 35 3.5 7.0 0.00 0.00 0.00 74 1014.8
20260506051352 61 0 2.6 7.0 0.00 0.00 0.00 77 1014.7
20260506051211 61 339 2.6 6.1 0.00 0.00 0.00 78 1014.7
20260506051024 61 319 1.7 6.1 0.00 0.00 0.00 78 1014.7
20260506050847 61 16 1.7 6.1 0.00 0.00 0.00 78 1014.7
20260506050553 61 350 1.7 4.3 0.00 0.00 0.00 79 1014.7
20260506050352 61 306 0.9 4.3 0.00 0.00 0.00 79 1014.7
20260506050214 61 333 0.9 4.3 0.00 0.00 0.00 79 1014.7
20260506044833 60 326 0.9 2.6 0.00 0.00 0.00 80 1014.4
20260506044629 60 332 0.9 2.6 0.00 0.00 0.00 80 1014.4
20260506044419 60 337 0.9 2.6 0.00 0.00 0.00 80 1014.4
20260506044214 60 342 0.9 2.6 0.00 0.00 0.00 80 1014.3
20260506044014 60 347 0.9 2.6 0.00 0.00 0.00 80 1014.3
20260506043803 60 323 0.9 3.5 0.00 0.00 0.00 80 1014.3
20260506043609 60 323 0.9 3.5 0.00 0.00 0.00 80 1014.3
20260506043414 60 320 0.0 3.5 0.00 0.00 0.00 80 1014.3
20260506043149 60 315 0.0 3.5 0.00 0.00 0.00 80 1014.3
20260506042950 60 340 0.0 2.6 0.00 0.00 0.00 80 1014.3
20260506042811 60 322 0.0 1.7 0.00 0.00 0.00 80 1014.3
20260506042659 59 316 0.0 1.7 0.00 0.00 0.00 80 1014.3
20260506042341 59 322 0.0 1.7 0.00 0.00 0.00 80 1014.3
20260506042139 59 322 0.0 2.6 0.00 0.00 0.00 80 1014.3
20260506041926 59 296 0.0 2.6 0.00 0.00 0.00 80 1014.3
20260506041716 59 295 0.0 2.6 0.00 0.00 0.00 81 1014.3
20260506041246 59 294 0.9 4.3 0.00 0.00 0.00 80 1014.2
20260506041034 58 294 0.9 4.3 0.00 0.00 0.00 81 1014.2
20260506040824 58 320 0.9 4.3 0.00 0.00 0.00 81 1014.2
20260506040657 58 322 0.0 2.6 0.00 0.00 0.00 81 1014.2
20260506040358 58 325 0.0 2.6 0.00 0.00 0.00 81 1014.2
20260506040116 58 325 0.0 2.6 0.00 0.00 0.00 81 1014.2
20260506035911 58 357 0.0 1.7 0.00 0.00 0.00 80 1014.2
20260506035653 59 23 0.0 1.7 0.00 0.00 0.00 81 1014.0
20260506035458 58 31 0.0 0.0 0.00 0.00 0.00 81 1014.0
20260506035235 58 31 0.0 0.0 0.00 0.00 0.00 80 1014.0
20260506035045 58 31 0.0 0.0 0.00 0.00 0.00 80 1014.0
20260506034849 58 31 0.0 0.0 0.00 0.00 0.00 79 1014.0
20260506034558 58 31 0.0 0.0 0.00 0.00 0.00 79 1014.0
20260506034322 58 31 0.0 0.0 0.00 0.00 0.00 80 1013.8
20260506034134 58 31 0.0 0.0 0.00 0.00 0.00 79 1013.8
20260506033730 58 31 0.0 0.0 0.00 0.00 0.00 79 1013.8
20260506033605 58 285 0.0 1.7 0.00 0.00 0.00 78 1013.8
20260506033424 58 285 0.0 1.7 0.00 0.00 0.00 78 1013.8
20260506033305 58 285 0.9 4.3 0.00 0.00 0.00 78 1013.8
20260506033131 58 285 0.9 4.3 0.00 0.00 0.00 78 1013.7
20260506033002 58 285 0.9 4.3 0.00 0.00 0.00 78 1013.7
20260506032812 59 308 0.9 4.3 0.00 0.00 0.00 78 1013.7
20260506032546 59 291 0.9 4.3 0.00 0.00 0.00 78 1013.7
20260506032306 59 309 0.9 4.3 0.00 0.00 0.00 79 1013.7
20260506032106 59 285 0.9 4.3 0.00 0.00 0.00 78 1013.7
20260506031900 59 285 1.7 4.3 0.00 0.00 0.00 78 1013.7
20260506031639 59 278 1.7 4.3 0.00 0.00 0.00 78 1013.7
20260506031434 59 299 0.9 4.3 0.00 0.00 0.00 78 1013.7
20260506031209 59 284 0.9 4.3 0.00 0.00 0.00 78 1013.7
20260506031032 59 272 0.9 4.3 0.00 0.00 0.00 78 1013.7
20260506030841 59 271 0.9 4.3 0.00 0.00 0.00 79 1013.7
20260506030647 59 278 0.9 4.3 0.00 0.00 0.00 79 1013.7
20260506030451 59 294 0.9 4.3 0.00 0.00 0.00 79 1013.7
20260506030239 59 275 0.9 4.3 0.00 0.00 0.00 79 1013.6
20260506030020 59 284 1.7 4.3 0.00 0.00 0.00 79 1013.6
20260506025801 59 261 0.9 4.3 0.00 0.00 0.00 79 1013.6
20260506025545 59 271 0.9 4.3 0.00 0.00 0.00 79 1013.6
20260506025341 59 291 0.9 4.3 0.00 0.00 0.00 80 1013.6
20260506025142 59 357 0.9 4.3 0.00 0.00 0.00 80 1013.6
20260506024815 59 357 0.9 3.5 0.00 0.00 0.00 80 1013.6
20260506024536 59 357 0.9 2.6 0.00 0.00 0.00 80 1013.6
20260506024326 59 357 0.9 2.6 0.00 0.00 0.00 80 1013.6
20260506024104 59 357 0.9 4.3 0.00 0.00 0.00 80 1013.6
20260506023906 59 357 0.0 4.3 0.00 0.00 0.00 80 1013.6
20260506023711 59 359 0.9 4.3 0.00 0.00 0.00 80 1013.6
20260506023502 59 357 0.9 4.3 0.00 0.00 0.00 80 1013.6
20260506023217 59 357 0.0 4.3 0.00 0.00 0.00 80 1013.6
20260506023033 59 357 0.0 1.7 0.00 0.00 0.00 80 1013.6
20260506022556 59 357 0.9 3.5 0.00 0.00 0.00 81 1013.7
20260506022414 59 357 0.9 4.3 0.00 0.00 0.00 81 1013.7
20260506022212 59 357 1.7 4.3 0.00 0.00 0.00 81 1013.7
20260506021930 59 357 0.9 4.3 0.00 0.00 0.00 81 1013.7
20260506021753 59 357 1.7 4.3 0.00 0.00 0.00 81 1013.7
20260506021604 59 274 1.7 4.3 0.00 0.00 0.00 82 1013.7
20260506021345 59 280 1.7 4.3 0.00 0.00 0.00 82 1013.8
20260506021126 58 284 1.7 4.3 0.00 0.00 0.00 82 1013.8
20260506020923 58 272 1.7 4.3 0.00 0.00 0.00 82 1013.8
20260506020736 58 287 1.7 4.3 0.00 0.00 0.00 83 1013.8
20260506020520 58 271 0.9 3.5 0.00 0.00 0.00 83 1013.8
20260506020317 58 277 0.9 4.3 0.00 0.00 0.00 83 1013.8
20260506020110 58 258 0.9 4.3 0.00 0.00 0.00 83 1013.8
20260506015904 58 257 0.9 4.3 0.00 0.00 0.00 83 1013.7
20260506015658 58 263 0.9 4.3 0.00 0.00 0.00 84 1013.7
20260506015436 58 261 0.9 3.5 0.00 0.00 0.00 84 1013.7
20260506015234 58 254 0.9 3.5 0.00 0.00 0.00 84 1013.7
20260506015048 58 256 0.9 3.5 0.00 0.00 0.00 84 1013.7
20260506014830 58 357 0.9 4.3 0.00 0.00 0.00 84 1013.7
20260506014616 58 253 1.7 4.3 0.00 0.00 0.00 85 1013.7
20260506014414 58 270 1.7 4.3 0.00 0.00 0.00 85 1013.7
20260506014218 58 232 1.7 4.3 0.00 0.00 0.00 85 1013.7
20260506014019 58 268 1.7 4.3 0.00 0.00 0.00 85 1013.7
20260506013818 58 250 1.7 4.3 0.00 0.00 0.00 85 1013.7
20260506013612 58 233 0.9 4.3 0.00 0.00 0.00 86 1013.7
20260506013421 58 239 0.9 4.3 0.00 0.00 0.00 86 1013.7
20260506013219 58 281 0.9 4.3 0.00 0.00 0.00 86 1013.7
20260506013017 58 251 0.9 4.3 0.00 0.00 0.00 86 1013.7
20260506012811 58 243 0.9 4.3 0.00 0.00 0.00 86 1013.6
20260506012617 58 254 0.9 3.5 0.00 0.00 0.00 86 1013.6
20260506012432 58 246 0.9 4.3 0.00 0.00 0.00 86 1013.6
20260506012311 58 264 0.9 4.3 0.00 0.00 0.00 86 1013.6
20260506011959 58 244 0.9 4.3 0.00 0.00 0.00 86 1013.6
20260506011756 58 246 0.9 4.3 0.00 0.00 0.00 86 1013.6
20260506011556 58 254 0.9 4.3 0.00 0.00 0.00 86 1013.6
20260506011349 58 256 0.9 2.6 0.00 0.00 0.00 86 1013.7
20260506011156 58 241 0.9 4.3 0.00 0.00 0.00 86 1013.7
20260506011000 58 234 0.9 4.3 0.00 0.00 0.00 86 1013.7
20260506010732 58 253 0.9 4.3 0.00 0.00 0.00 86 1013.7
20260506010527 58 263 0.9 4.3 0.00 0.00 0.00 87 1013.7
20260506010328 58 267 0.9 4.3 0.00 0.00 0.00 87 1013.7
20260506010139 58 264 0.9 4.3 0.00 0.00 0.00 87 1013.7
20260506005918 58 244 0.9 4.3 0.00 0.00 0.00 87 1013.7
20260506005714 58 275 0.9 4.3 0.00 0.00 0.00 87 1013.7
20260506005535 58 254 0.9 4.3 0.00 0.00 0.00 88 1013.7
20260506005416 58 254 0.9 4.3 0.00 0.00 0.00 88 1013.7
20260506004948 58 250 0.0 4.3 0.00 0.00 0.00 88 1013.7
20260506004811 58 275 0.0 2.6 0.00 0.00 0.00 88 1013.7
20260506004535 58 261 0.0 1.7 0.00 0.00 0.00 88 1013.7
20260506004245 58 240 0.0 2.6 0.00 0.00 0.00 88 1013.7
20260506004012 58 344 0.0 2.6 0.00 0.00 0.00 88 1013.7
20260506003754 58 356 0.0 2.6 0.00 0.00 0.00 89 1013.7
20260506003555 58 357 0.0 2.6 0.00 0.00 0.00 89 1013.7
20260506003349 58 357 0.0 1.7 0.00 0.00 0.00 89 1013.7
20260506003132 58 356 0.0 0.0 0.00 0.00 0.00 89 1013.7
20260506002915 58 356 0.0 0.0 0.00 0.00 0.00 89 1013.7
20260506002716 58 356 0.0 0.0 0.00 0.00 0.00 89 1013.6
20260506002306 58 357 0.0 3.5 0.00 0.00 0.00 90 1013.6
20260506002106 58 357 0.0 3.5 0.00 0.00 0.00 90 1013.6
20260506001903 58 357 0.0 3.5 0.00 0.00 0.00 90 1013.6
20260506001658 58 357 0.0 3.5 0.00 0.00 0.00 90 1013.6
20260506001248 58 359 0.0 2.6 0.00 0.00 0.00 91 1013.6
20260506001044 58 357 0.0 1.7 0.00 0.00 0.00 91 1013.6
20260506000643 58 356 0.0 1.7 0.00 0.00 0.00 91 1013.6
20260505235840 58 359 0.0 2.6 0.00 0.00 0.00 91 1013.6
20260505235630 58 359 0.9 2.6 0.00 0.00 0.00 91 1013.6
20260505235417 58 359 0.9 2.6 0.00 0.00 0.00 91 1013.6
20260505235216 58 359 0.9 2.6 0.00 0.00 0.00 91 1013.6
20260505235012 58 359 0.9 2.6 0.00 0.00 0.00 91 1013.6
20260505234840 58 359 0.9 2.6 0.00 0.00 0.00 91 1013.6
20260505234720 58 357 0.9 2.6 0.00 0.00 0.00 91 1013.6
20260505234404 58 359 0.9 3.5 0.00 0.00 0.00 91 1013.5
20260505234205 58 359 0.9 3.5 0.00 0.00 0.00 91 1013.5
20260505233958 58 357 0.9 3.5 0.00 0.00 0.00 91 1013.5
20260505233756 58 357 0.9 3.5 0.00 0.00 0.00 91 1013.5
20260505233600 58 357 0.9 3.5 0.00 0.00 0.00 91 1013.5
20260505233350 58 357 0.9 2.6 0.00 0.00 0.00 91 1013.5
20260505233145 58 357 0.9 2.6 0.00 0.00 0.00 91 1013.5
20260505232912 58 357 0.9 2.6 0.00 0.00 0.00 91 1013.5
20260505232712 58 357 0.9 4.3 0.00 0.00 0.00 91 1013.6
20260505232318 58 359 0.9 4.3 0.00 0.00 0.00 91 1013.6
20260505232110 58 359 0.9 4.3 0.00 0.00 0.00 91 1013.6
20260505231900 58 359 0.9 3.5 0.00 0.00 0.00 91 1013.6
20260505231704 58 359 0.9 3.5 0.00 0.00 0.00 91 1013.6
20260505231512 58 357 0.9 3.5 0.00 0.00 0.00 91 1013.6
20260505231254 58 359 0.9 3.5 0.00 0.00 0.00 91 1013.6
20260505231101 58 359 0.9 3.5 0.00 0.00 0.00 91 1013.6
20260505230849 58 357 0.9 3.5 0.00 0.00 0.00 91 1013.6
20260505230636 58 357 0.9 4.3 0.00 0.00 0.00 91 1013.6
20260505230433 58 357 0.9 4.3 0.00 0.00 0.00 91 1013.6
20260505230235 58 357 0.9 4.3 0.00 0.00 0.00 91 1013.6
20260505230059 58 359 0.9 4.3 0.00 0.00 0.00 91 1013.6
20260505225806 58 359 0.9 4.3 0.00 0.00 0.00 91 1013.6
20260505225636 58 357 0.9 4.3 0.00 0.00 0.00 91 1013.6
20260505225353 58 357 0.9 4.3 0.00 0.00 0.00 91 1013.6
20260505225208 58 356 0.9 4.3 0.00 0.00 0.00 91 1013.6
20260505225046 58 357 0.9 4.3 0.00 0.00 0.00 91 1013.6
20260505224750 58 357 0.9 2.6 0.00 0.00 0.00 91 1013.6
20260505224541 58 357 0.9 2.6 0.00 0.00 0.00 91 1013.6
20260505224328 58 357 0.9 4.3 0.00 0.00 0.00 91 1013.6
20260505224104 58 357 0.9 4.3 0.00 0.00 0.00 91 1013.6
20260505223659 58 357 0.9 4.3 0.00 0.00 0.00 91 1013.6
20260505223500 58 357 0.9 4.3 0.00 0.00 0.00 91 1013.6
20260505223255 58 356 0.9 4.3 0.00 0.00 0.00 91 1013.6
20260505223058 58 356 0.9 4.3 0.00 0.00 0.00 91 1013.6
20260505222850 58 357 0.9 4.3 0.00 0.00 0.00 91 1013.6
20260505222711 58 356 0.9 4.3 0.00 0.00 0.00 91 1013.6
20260505222550 58 359 0.9 4.3 0.00 0.00 0.00 91 1013.6
20260505222251 58 357 0.0 3.5 0.00 0.00 0.00 91 1013.6
20260505222047 58 357 0.9 2.6 0.00 0.00 0.00 91 1013.6
20260505221838 58 357 0.0 2.6 0.00 0.00 0.00 91 1013.6
20260505221640 58 359 0.9 2.6 0.00 0.00 0.00 91 1013.6
20260505221434 58 359 0.9 2.6 0.00 0.00 0.00 91 1013.6
20260505221230 58 357 0.9 2.6 0.00 0.00 0.00 91 1013.5
20260505221027 58 357 0.9 2.6 0.00 0.00 0.00 91 1013.5
20260505220832 58 357 0.9 2.6 0.00 0.00 0.00 91 1013.5
20260505220624 58 357 0.9 2.6 0.00 0.00 0.00 91 1013.5
20260505220419 59 357 0.9 2.6 0.00 0.00 0.00 91 1013.5
20260505220211 59 359 0.9 2.6 0.00 0.00 0.00 91 1013.5
20260505220013 59 357 0.9 2.6 0.00 0.00 0.00 91 1013.5
20260505215810 59 357 0.9 2.6 0.00 0.00 0.00 91 1013.3
20260505215607 59 357 0.9 2.6 0.00 0.00 0.00 91 1013.3
20260505215414 59 359 0.9 2.6 0.00 0.00 0.00 91 1013.3
20260505215208 59 359 0.9 2.6 0.00 0.00 0.00 91 1013.3
20260505215003 59 357 0.9 2.6 0.00 0.00 0.00 91 1013.3
20260505214800 59 357 0.9 2.6 0.00 0.00 0.00 91 1013.3
20260505214600 59 357 0.9 2.6 0.00 0.00 0.00 91 1013.3
20260505214143 59 357 0.9 4.3 0.00 0.00 0.00 91 1013.2
20260505213938 59 359 0.9 4.3 0.00 0.00 0.00 91 1013.2
20260505213743 59 357 0.9 4.3 0.00 0.00 0.00 91 1013.2
20260505213535 59 357 0.9 4.3 0.00 0.00 0.00 91 1013.2
20260505213125 59 244 0.9 3.5 0.00 0.00 0.00 90 1013.2
20260505212926 59 248 0.9 3.5 0.00 0.00 0.00 90 1013.2
20260505212728 59 288 0.0 3.5 0.00 0.00 0.00 90 1013.0
20260505212527 59 277 0.0 3.5 0.00 0.00 0.00 90 1013.1
20260505212325 59 261 0.9 3.5 0.00 0.00 0.00 90 1013.1
20260505212127 60 282 0.9 3.5 0.00 0.00 0.00 90 1013.1
20260505211941 60 244 0.0 3.5 0.00 0.00 0.00 90 1013.1
20260505211754 60 265 0.9 2.6 0.00 0.00 0.00 90 1013.1
20260505211611 60 250 0.9 2.6 0.00 0.00 0.00 89 1013.1
20260505211437 60 233 0.9 4.3 0.00 0.00 0.00 89 1013.1
20260505211126 60 247 0.9 4.3 0.00 0.00 0.00 90 1013.1
20260505210923 60 233 0.9 5.2 0.00 0.00 0.00 89 1013.1
20260505210732 60 237 0.9 5.2 0.00 0.00 0.00 89 1013.1
20260505210516 60 244 0.9 5.2 0.00 0.00 0.00 89 1013.1
20260505210318 60 357 0.9 5.2 0.00 0.00 0.00 89 1013.1
20260505210140 60 287 0.0 5.2 0.00 0.00 0.00 89 1013.1
20260505210003 60 288 0.0 1.7 0.00 0.00 0.00 88 1013.1
20260505205707 60 311 0.0 1.7 0.00 0.00 0.00 88 1013.1
20260505205512 60 280 0.0 1.7 0.00 0.00 0.00 88 1013.1
20260505205310 60 271 0.0 1.7 0.00 0.00 0.00 88 1013.1
20260505205104 60 251 0.0 2.6 0.00 0.00 0.00 88 1013.1
20260505204902 60 253 0.0 2.6 0.00 0.00 0.00 88 1013.1
20260505204700 60 246 0.9 2.6 0.00 0.00 0.00 87 1013.1
20260505204503 61 260 0.9 2.6 0.00 0.00 0.00 87 1013.1
20260505204302 61 274 0.9 4.3 0.00 0.00 0.00 87 1013.0
20260505204102 61 253 0.9 4.3 0.00 0.00 0.00 87 1013.0
20260505203906 61 272 0.9 4.3 0.00 0.00 0.00 87 1013.0
20260505203708 61 239 0.9 4.3 0.00 0.00 0.00 86 1013.0
20260505203510 61 263 0.9 3.5 0.00 0.00 0.00 86 1013.0
20260505203306 61 267 0.9 3.5 0.00 0.00 0.00 86 1013.0
20260505203059 61 261 0.9 5.2 0.00 0.00 0.00 86 1013.0
20260505202901 61 227 0.9 5.2 0.00 0.00 0.00 86 1013.0
20260505202700 61 289 0.9 5.2 0.00 0.00 0.00 86 1013.0
20260505202500 61 274 0.9 5.2 0.00 0.00 0.00 85 1013.0
20260505202258 61 272 0.9 5.2 0.00 0.00 0.00 85 1013.0
20260505202056 61 250 0.9 6.1 0.00 0.00 0.00 85 1013.0
20260505201858 61 243 0.9 6.1 0.00 0.00 0.00 84 1013.0
20260505201710 61 251 0.9 6.1 0.00 0.00 0.00 84 1013.0
20260505201540 61 234 0.9 6.1 0.00 0.00 0.00 84 1013.0
20260505201253 61 232 0.9 6.1 0.00 0.00 0.00 84 1012.8
20260505201047 61 243 0.9 6.1 0.00 0.00 0.00 83 1012.8
20260505200853 61 267 0.9 6.1 0.00 0.00 0.00 84 1012.8
20260505200659 61 215 0.9 6.1 0.00 0.00 0.00 83 1012.8
20260505200443 61 250 0.9 4.3 0.00 0.00 0.00 83 1012.8
20260505200245 61 220 0.9 6.1 0.00 0.00 0.00 83 1012.8
20260505200109 61 254 0.9 6.1 0.00 0.00 0.00 83 1012.8
20260505195940 62 232 0.9 6.1 0.00 0.00 0.00 82 1012.7
20260505195641 62 237 1.7 6.1 0.00 0.00 0.00 82 1012.7
20260505195439 62 243 1.7 6.1 0.00 0.00 0.00 82 1012.7
20260505195244 62 233 1.7 6.1 0.00 0.00 0.00 82 1012.7
20260505195049 62 193 1.7 6.1 0.00 0.00 0.00 82 1012.7
20260505194849 62 213 1.7 6.1 0.00 0.00 0.00 82 1012.7
20260505194700 62 254 0.9 5.2 0.00 0.00 0.00 82 1012.7
20260505194527 62 193 0.9 5.2 0.00 0.00 0.00 82 1012.7
20260505194239 62 226 0.9 5.2 0.00 0.00 0.00 81 1012.7
20260505194039 62 217 0.9 5.2 0.00 0.00 0.00 81 1012.7
20260505193845 62 223 0.9 6.1 0.00 0.00 0.00 81 1012.7
20260505193652 62 212 0.9 6.1 0.00 0.00 0.00 81 1012.7
20260505193430 62 199 0.9 6.1 0.00 0.00 0.00 81 1012.7
20260505193232 62 182 0.9 6.1 0.00 0.00 0.00 81 1012.7
20260505193026 62 184 0.9 6.1 0.00 0.00 0.00 81 1012.7
20260505192831 62 217 0.9 7.0 0.00 0.00 0.00 80 1012.5
20260505192625 62 202 0.9 7.0 0.00 0.00 0.00 80 1012.5
20260505192423 62 150 0.9 7.0 0.00 0.00 0.00 80 1012.5
20260505192219 62 171 0.9 7.0 0.00 0.00 0.00 80 1012.5
20260505192018 62 165 0.9 7.0 0.00 0.00 0.00 79 1012.5
20260505191815 62 184 1.7 5.2 0.00 0.00 0.00 79 1012.5
20260505191612 62 217 1.7 5.2 0.00 0.00 0.00 78 1012.5
20260505191413 62 209 1.7 5.2 0.00 0.00 0.00 78 1012.4
20260505191216 62 199 1.7 5.2 0.00 0.00 0.00 78 1012.4
20260505191016 62 200 1.7 6.1 0.00 0.00 0.00 77 1012.4
20260505190830 62 202 1.7 6.1 0.00 0.00 0.00 77 1012.4
20260505190650 62 212 1.7 6.1 0.00 0.00 0.00 77 1012.4
20260505190505 62 200 1.7 6.1 0.00 0.00 0.00 77 1012.4
20260505190219 62 196 1.7 6.1 0.00 0.00 0.00 76 1012.4
20260505190018 62 182 1.7 7.0 0.00 0.00 0.00 76 1012.4
20260505185820 62 195 1.7 7.0 0.00 0.00 0.00 76 1012.2
20260505185612 62 212 1.7 7.0 0.00 0.00 0.00 76 1012.2
20260505185419 62 203 0.9 7.0 0.00 0.00 0.00 76 1012.2
20260505185212 62 151 0.9 7.0 0.00 0.00 0.00 76 1012.2
20260505185011 62 215 0.9 5.2 0.00 0.00 0.00 75 1012.2
20260505184815 62 189 0.9 5.2 0.00 0.00 0.00 75 1012.2
20260505184604 62 213 0.0 5.2 0.00 0.00 0.00 75 1012.2
20260505184407 62 216 0.9 5.2 0.00 0.00 0.00 75 1012.0
20260505184205 62 195 0.9 5.2 0.00 0.00 0.00 75 1012.0
20260505184009 62 185 0.9 5.2 0.00 0.00 0.00 75 1012.0
20260505183805 62 164 0.9 5.2 0.00 0.00 0.00 75 1012.0
20260505183615 62 161 1.7 5.2 0.00 0.00 0.00 75 1012.0
20260505183402 62 178 1.7 5.2 0.00 0.00 0.00 76 1012.0
20260505183202 62 200 1.7 5.2 0.00 0.00 0.00 76 1012.0
20260505182959 62 217 1.7 5.2 0.00 0.00 0.00 77 1012.0
20260505182808 62 191 0.9 5.2 0.00 0.00 0.00 77 1011.8
20260505182606 62 216 0.9 5.2 0.00 0.00 0.00 77 1011.8
20260505182402 62 206 0.9 5.2 0.00 0.00 0.00 77 1011.8
20260505182156 62 196 0.9 5.2 0.00 0.00 0.00 78 1011.8
20260505181955 62 215 0.9 5.2 0.00 0.00 0.00 78 1011.8
20260505181757 62 184 0.9 5.2 0.00 0.00 0.00 78 1011.8
20260505181600 62 181 0.9 5.2 0.00 0.00 0.00 78 1011.8
20260505181353 63 208 0.9 5.2 0.00 0.00 0.00 78 1011.7
20260505181149 63 196 1.7 5.2 0.00 0.00 0.00 78 1011.7
20260505180948 63 213 1.7 6.1 0.00 0.00 0.00 78 1011.7
20260505180755 63 212 1.7 6.1 0.00 0.00 0.00 79 1011.7
20260505180549 63 182 1.7 6.1 0.00 0.00 0.00 79 1011.7
20260505180342 63 230 2.6 7.0 0.00 0.00 0.00 79 1011.7
20260505180144 63 172 2.6 9.6 0.00 0.00 0.00 79 1011.7
20260505175943 63 174 2.6 9.6 0.00 0.00 0.00 80 1011.7
20260505175743 63 191 2.6 9.6 0.00 0.00 0.00 80 1011.6
20260505175539 63 216 2.6 10.4 0.00 0.00 0.00 80 1011.6
20260505175338 63 198 2.6 11.3 0.00 0.00 0.00 81 1011.6
20260505175138 62 199 3.5 11.3 0.00 0.00 0.00 81 1011.6
20260505174935 63 205 2.6 11.3 0.00 0.00 0.00 83 1011.6
20260505174737 62 219 2.6 11.3 0.00 0.00 0.00 83 1011.6
20260505174533 62 199 2.6 11.3 0.00 0.00 0.00 83 1011.6
20260505174329 62 234 2.6 9.6 0.00 0.00 0.00 84 1011.6
20260505174128 62 203 1.7 6.1 0.00 0.00 0.00 85 1011.6
20260505173935 62 220 1.7 6.1 0.00 0.00 0.00 85 1011.6
20260505173758 62 258 1.7 7.0 0.00 0.00 0.00 86 1011.6
20260505173619 63 239 1.7 7.0 0.00 0.00 0.00 86 1011.6
20260505173434 63 169 1.7 8.7 0.00 0.00 0.00 86 1011.6
20260505173142 63 234 1.7 8.7 0.00 0.00 0.00 86 1011.6
20260505172959 63 193 1.7 8.7 0.00 0.00 0.00 87 1011.6
20260505172831 63 354 1.7 8.7 0.00 0.00 0.00 87 1011.3
20260505172525 63 356 1.7 8.7 0.00 0.00 0.00 87 1011.3
20260505172323 63 356 0.9 6.1 0.00 0.00 0.00 87 1011.3
20260505172118 63 359 0.9 6.1 0.00 0.00 0.00 87 1011.3
20260505171915 63 352 0.9 6.1 0.00 0.00 0.00 87 1011.3
20260505171727 63 354 1.7 6.1 0.00 0.00 0.00 87 1011.3
20260505171523 64 354 1.7 6.1 0.00 0.00 0.00 86 1011.3
20260505171350 64 356 1.7 6.1 0.00 0.00 0.00 86 1011.4
20260505171109 64 356 1.7 5.2 0.00 0.00 0.00 86 1011.4
20260505170908 64 356 1.7 5.2 0.00 0.00 0.00 86 1011.4
20260505170719 64 356 2.6 6.1 0.00 0.00 0.00 85 1011.4
20260505170513 64 356 2.6 6.1 0.00 0.00 0.00 85 1011.4
20260505170259 64 120 3.5 6.1 0.00 0.00 0.00 84 1011.4
20260505170059 65 117 3.5 6.1 0.00 0.00 0.00 83 1011.4
20260505165858 65 150 3.5 7.0 0.00 0.00 0.00 82 1011.2
20260505165711 65 133 3.5 9.6 0.00 0.00 0.00 81 1011.2
20260505165520 65 134 4.3 10.4 0.00 0.00 0.00 80 1011.2
20260505165347 66 127 4.3 10.4 0.00 0.00 0.00 79 1011.3
20260505165056 66 172 5.2 10.4 0.00 0.00 0.00 78 1011.3
20260505164856 67 186 4.3 10.4 0.00 0.00 0.00 77 1011.3
20260505164659 67 133 4.3 10.4 0.00 0.00 0.00 74 1011.3
20260505164459 68 174 4.3 10.4 0.00 0.00 0.00 72 1011.3
20260505164306 69 131 3.5 9.6 0.00 0.00 0.00 69 1011.1
20260505164051 69 114 3.5 9.6 0.00 0.00 0.00 68 1011.1
20260505163901 70 89 3.5 9.6 0.00 0.00 0.00 66 1011.1
20260505163710 71 174 3.5 9.6 0.00 0.00 0.00 64 1011.1
20260505163501 71 150 3.5 10.4 0.00 0.00 0.00 60 1011.1
20260505163257 72 126 3.5 10.4 0.00 0.00 0.00 57 1011.1
20260505163052 73 169 2.6 10.4 0.00 0.00 0.00 52 1011.1
20260505162848 73 174 2.6 10.4 0.00 0.00 0.00 49 1010.9
20260505162658 74 92 1.7 10.4 0.00 0.00 0.00 46 1010.9
20260505162446 76 145 0.9 6.1 0.00 0.00 0.00 39 1010.9
20260505162247 77 186 0.0 5.2 0.00 0.00 0.00 35 1010.9
20260505162045 78 151 0.0 2.6 0.00 0.00 0.00 31 1010.9
20260505161845 78 189 0.0 4.3 0.00 0.00 0.00 30 1010.9
20260505161425 78 216 0.0 4.3 0.00 0.00 0.00 30 1010.9
20260505161227 78 186 0.0 4.3 0.00 0.00 0.00 29 1010.9
20260505161026 78 195 0.0 2.6 0.00 0.00 0.00 30 1010.9
20260505160820 78 195 0.0 2.6 0.00 0.00 0.00 29 1010.9
20260505160613 78 169 0.0 5.2 0.00 0.00 0.00 29 1010.9
20260505160416 78 178 0.0 5.2 0.00 0.00 0.00 28 1010.9
20260505160203 78 223 0.9 5.2 0.00 0.00 0.00 28 1010.9